Showing default

SPOT 3, 22823

Orbit data source: Space-Track

SPOT 3, 22823 is a payload satellite owned by CNES (FR) in SSO that was launched on Sun, 26 Sep 1993 UTC via an ARIANE 40 launch vehicle from the French Guiana (FRGUI). Payload-class satellites include a variety of spacecraft equipped with specific instruments for various scientific and technological missions. These include communications satellites like Starlink; space stations such as the ISS; scientific satellites like the Hubble; Earth observation satellites from companies like Planet Labs, Umbra, and HawkEye 360; GPS; miniature CubeSats for education and research; and military/defense satellites.

Loading next visibility...
Identifier
22823, 1993-061A
Orbit
SSO
Country
Flag of FRFR
Related business
Manufacturer
MMS/Toulouse
Mission
Non-operational Civil Imaging
Bus & Motor
SPOT, SPOT AOCS
Mass
1,900 kg wet, 1,750 kg dry
Launch date (UTC)
1993-09-26 (32 years ago)
Launch vehicle
ARIANE 40
Launch site
French Guiana (FRGUI)
Object type
Payload
Rocket body
Debris
Shape & HBR
Box + 1 Pan, 4.1 m
Radar Cross Section
12.991 m², Large (>1 m²)

Expand to show TLE details & history
Last TLE update: 10 hours ago

TLE from 10 hours ago
0 SPOT 3
1 22823U 93061A   25258.16543163  .00000150  00000-0  91665-4 0  9994
2 22823  98.8988 316.3638 0015895 313.4634  46.5219 14.19977628655547
Epoch: 2025-09-15T03:58Z
TLE epoch observation values (Epoch: 2025-09-15T03:58:13.292Z)
Latitude
-0.00005°
Longitude
-97.56557°
Altitude
820.466 km
Speed
7.447 km/s
True Right ascension
21h 05m 27s
True Declination
0° 00' 00"
Sunlit
Object was in full shadow at epoch
Visualization orbit readout
Latitude
Unknown
Longitude
Unknown
Altitude
Unknown
Speed
Unknown
Apparent Right ascension
Unknown
Apparent Declination
Unknown
Sunlit
N/A
Visualization observer readout
Local Sidereal Time
06:50:56
Azimuth
Unknown
Elevation
Unknown
Doppler factor
Unknown
Orbital elements
Apogee altitude
834.042 km
Perigee altitude
811.151 km
Semi-major axis
7,200.733 km
Eccentricity
0.00159
Inclination
98.8988°
RAAN
316.3638°
Arg. of periapsis
313.4634°
True anomaly
46.65425°
Mean anomaly
46.5219°
Eccentric anomaly
46.58806°
Mean motion
3.55204 °/min
Orbital period
101.35 mins
BSTAR
0.000091665
Loading maneuver chart data...
Computing Atmospheric mass density...
Loading historical data...
Loading historical data...
Loading historical data...
Loading historical data...
Loading historical data...
Loading historical data...
Loading historical data...

Documentation

Showing up to 5 results
|